NIMBUS 2 DEB, 42436

Orbit data source: Space-Track

NIMBUS 2 DEB, 42436 is space debris in SSO originally from a launch on Sun, 15 May 1966 UTC launched from the Air Force Western Test Range (AFWTR). Debris objects in space refer to the collection of defunct objects orbiting the Earth. Examples of debris include non-operational satellites, rocket bodies, and fragments generated from explosions, collisions, or faulty payload assembly.

Loading next visibility...
Identifier
42436, 1966-040BP
Orbit
SSO
Country
Flag of USUS
Related business
Manufacturer
Unknown
Mission
Spacecraft
Bus & Motor
Unknown
Mass
Unknown
Launch date (UTC)
1966-05-15 (59 years ago)
Launch vehicle
Unknown
Launch site
Air Force Western Test Range (AFWTR)
Object type
Payload
Rocket body
Debris
Shape & HBR
Unknown shape, 0.1 m
Radar Cross Section
Small (<0.1 m²)

Expand to show TLE details & history
Last TLE update: 4 days ago

TLE from 4 days ago
0 NIMBUS 2 DEB
1 42436U 66040BP  25298.49520813  .00002527  00000-0  43223-2 0  9995
2 42436 100.3158 136.7963 0050155  18.9528 341.3454 13.45296922508362
Epoch: 2025-10-25T11:53Z
TLE epoch observation values (Epoch: 2025-10-25T11:53:05.982Z)
Latitude
-0.00003°
Longitude
-75.60356°
Altitude
1,056.896 km
Speed
7.341 km/s
True Right ascension
09h 07m 11s
True Declination
0° 00' 00"
Sunlit
Object was in daylight at epoch
Visualization orbit readout
Latitude
Unknown
Longitude
Unknown
Altitude
Unknown
Speed
Unknown
Apparent Right ascension
Unknown
Apparent Declination
Unknown
Sunlit
N/A
Visualization observer readout
Local Sidereal Time
23:50:14
Azimuth
Unknown
Elevation
Unknown
Doppler factor
Unknown
Orbital elements
Apogee altitude
1,124.394 km
Perigee altitude
1,049.511 km
Semi-major axis
7,465.09 km
Eccentricity
0.00502
Inclination
100.3158°
RAAN
136.7963°
Arg. of periapsis
18.9528°
True anomaly
341.16047°
Mean anomaly
341.3454°
Eccentric anomaly
341.25304°
Mean motion
3.36504 °/min
Orbital period
106.98 mins
BSTAR
0.0043223
Loading maneuver chart data...
Computing Atmospheric mass density...
Loading historical data...
Loading historical data...
Loading historical data...
Loading historical data...
Loading historical data...
Loading historical data...
Loading historical data...

Documentation

Showing up to 5 results
|